Simultaneous Nadir Overpasses (SNOs) Predictions

Prediction of SNOs between AQUA and METOP-A Satellite Orbit:

Table of predicted SNOs for the next 14.0 days since TLE Epoch: 5/9/2020
Index Date (AQUA) Time (AQUA) Lat,Lon (AQUA) SZA (AQUA ) Date (METOP-A) Time (METOP-A) Lat,Lon (METOP-A) SZA (METOP-A ) Distance(km) Time Diff (sec)
1 05/10/2020 12:07:49 76.17, -13.68 58.55 05/10/2020 12:06:49 76.15, -13.65 58.54 2.69 60
2 05/10/2020 12:57:15 -76.20, 153.89 121.44 05/10/2020 12:57:30 -76.19, 153.80 121.44 2.40 15
3 05/10/2020 13:46:53 76.70, -40.16 59.14 05/10/2020 13:47:58 76.73, -36.95 59.00 82.15 65
4 05/13/2020 07:42:02 76.15, 52.85 57.81 05/13/2020 07:41:11 76.16, 52.73 57.85 3.47 51
5 05/13/2020 08:31:29 -76.21,-139.71 122.13 05/13/2020 08:31:52 -76.20,-139.80 122.13 2.50 23
6 05/16/2020 03:16:16 76.17, 119.21 57.18 05/16/2020 03:15:33 76.17, 119.12 57.19 2.54 43
7 05/16/2020 04:05:43 -76.23, -73.33 122.77 05/16/2020 04:06:14 -76.21, -73.41 122.78 2.77 31
8 05/18/2020 22:50:29 76.21,-174.45 56.60 05/18/2020 22:49:53 76.22,-174.35 56.62 3.11 36
9 05/18/2020 23:39:56 -76.25, -6.96 123.36 05/18/2020 23:40:34 -76.27, -6.87 123.36 2.94 38
10 05/21/2020 18:24:42 76.20,-107.97 56.01 05/21/2020 18:24:15 76.23,-107.98 56.05 3.43 27
11 05/21/2020 19:14:10 -76.28, 59.38 123.90 05/21/2020 19:14:56 -76.27, 59.51 123.92 3.43 46




NCC Satellite Simultaneous Nadir Overpasses (SNOs) Prediction Service
